Regional Weather Roundup
Issued by NWS Newport/Morehead, NC

Current Version | Previous Version | Text Only | Print | Product List | Glossary Off
Versions: 1 2 3 4 5 6 7 8 9 10 11 12 13 14 15 16 17 18 19 20 21 22 23 24 25 26 27 28 29 30 31 32 33 34 35 36 37 38 39 40 41 42 43 44 45 46 47 48 49 50
000 ASUS42 KMHX 280425 RWRMHX WEATHER ROUNDUP FOR EASTERN NORTH CAROLINA NATIONAL WEATHER SERVICE NEWPORT/MOREHEAD CITY NC 1200 AM EDT FRI AUG 28 2015 NOTE: "FAIR" INDICATES FEW OR NO CLOUDS BELOW 12,000 FEET WITH NO SIGNIFICANT WEATHER AND/OR OBSTRUCTIONS TO VISIBILITY NCZ015>017-031-032-045>047-102-103-280500- NORTH COAST CITY SKY/WX TMP DP RH WIND PRES REMARKS EDENTON CLOUDY 70 63 78 N3 30.12S ELIZABETH CITY CLOUDY 73 63 70 NE6 30.12S KITTY HAWK CLOUDY 76 62 63 NE6 30.09F MANTEO CLOUDY 74 63 70 NE10 30.11S $$ NCZ045>047-081-094-103-104-280500- CENTRAL COAST CITY SKY/WX TMP DP RH WIND PRES REMARKS FRISCO PTCLDY 72 69 90 NE7 30.07F SWANQUARTER NOT AVBL $$ NCZ095-097-098-100-101-280500- SOUTHERN COAST CITY SKY/WX TMP DP RH WIND PRES REMARKS BEAUFORT PTCLDY 71 70 96 NE7 30.07S CEDAR ISLAND NOT AVBL JACKSONVILLE MOCLDY 71 63 75 NE9 30.07F PINEY ISLAND CLOUDY N/A N/A N/A NE15G21 30.07S WILMINGTON CLOUDY 71 66 84 NE8 30.07R $$ NCZ011>013-027>030-043-044-078>080-089-090>093-098-280500- COASTAL PLAIN CITY SKY/WX TMP DP RH WIND PRES REMARKS AHOSKIE MOCLDY 65 63 92 CALM 30.14R CLINTON PTCLDY 70 66 86 CALM 30.11S ELIZABETHTOWN MOCLDY 70 64 81 CALM 30.10R GOLDSBORO MOCLDY 68 64 88 E5 30.10R GREENVILLE MOCLDY 66 64 94 N3 30.13S HAVELOCK PTCLDY 73 65 75 N10 30.09S KENANSVILLE N/A 68 64 86 CALM 30.11S KINSTON MOCLDY 68 65 89 N3 30.11S NEW BERN PTCLDY 70 63 78 NE8 30.10S RICHLANDS MOCLDY 68 61 77 N6 30.09S ROCKY MOUNT PTCLDY 67 62 84 CALM 30.13R WASHINGTON CLOUDY 69 65 85 NE5 30.11S WHITEVILLE MOCLDY 71 65 83 NE5 30.08S $$ AMZ130-135-150-152-154-156-158-170-250-252-270-ANZ085-086-088-633-658-670-280500- MARINE OBSERVATIONS STATION/POSITION TIME TEMP WIND PRES WAVE SWELL AIR SEA DIR/SP/G HT/PER HT/PER (UTC) (F) (DEG/KT/KT) (MB) (FT/S) (FT/S) CHESAPEAKE LIGHT 0400 76 30/ 8/ 9 1020.7 64 E VA BEACH 0350 76 77 40/ 14/ 16 1019.3 4/ 9 3/ 9 DUCK 0400 76 78 40/ 13/ 14 1019.1 2 E DUCK 0311 78 N/A 3/ 5 2/12 OREGON INLET 0400 75 78 20/ 14/ 18 1018.8 13E OREGON INLT 0400 79 N/A 5/ 5 2/12 HATTERAS CG 0400 76 80 40/ 9/ 12 1018.0 DIAMOND BUOY 0350 78 83 40/ 16/ 17 1017.8 4/ 8 3/ 8 CAPE LOOKOUT 0400 77 40/ 14/ 16 1017.9 BEAUFORT LAB 0400 73 80 20/ 6/ 7 1017.7 30 SE NEW RVR IN 0308 78 82 70/ 14/ 17 1018.1 30 SE NEW RVR IN 0325 82 N/A 4/ 4 27 SE WRIGHTSVLE 0400 74 82 160/ 8/ 12 N/A 5 SE WRIGHTSVLE 0308 78 82 50/ 17/ 23 1017.1 225 S CAPE HAT 0350 80 84 360/ 8/ 10 1016.7 3/ 9 3/ 9 41 SE CHARLESTON 0350 82 85 120/ 4/ 6 1016.7 2/ 9 2/ 9 $$

USA.gov is the U.S. government's official web portal to all federal, state and local government web resources and services.